Powrót do katalogu

STARLINK-5155

AktywnyŁącznośćVLEO
NORAD 54170·PAYLOAD·🇺🇸 United States

Wystrzelony Oct 28, 2022 z Vandenberg Space Force Base

Loading…

Następne Przeloty (najbliższe 24 godziny)

TLE

ŚwieżeSource: CelesTrak SupGP

Epoka: Sep 14, 2026, 13:56 UTC

1 54170C 22141P   26257.58104167 -.00040947  00000+0 -12103-2 0  2572
2 54170  53.1582 221.3626 0001297  90.2603 344.3611 15.34399330    17

Śledź STARLINK-5155 w czasie rzeczywistym z AllMySat

Download on the App Store